Theta_e
306 306 307 307 308 306 304 303 302 301 301 301 301 301 301 301 302 302 301 307 301 295 296 298 299 297 297 295 289 295 294 294 296 291 291 291 290 292 291 293 291 290 288 288 289 285 282 297 296 287 293 296 296 297
306 306 307 307 306 304 303 302 301 301 300 301 301 301 302 302 302 302 297 304 306 300 297 302 303 303 302 301 297 296 294 293 294 293 293 293 290 293 291 286 297 290 294 289 289 292 300 302 298 299 299 297 298 297
306 306 307 307 305 303 302 301 301 300 300 300 300 301 302 302 303 303 299 301 300 296 297 299 299 306 309 308 309 295 296 298 298 303 295 293 288 295 288 290 293 296 300 295 295 297 298 300 300 300 300 298 299 299
306 306 307 306 304 302 301 301 300 300 300 300 301 301 301 302 303 303 300 303 300 296 290 295 306 303 307 308 307 305 302 303 303 299 294 293 290 297 292 295 293 297 297 295 295 298 299 299 299 298 298 298 296 297
306 306 307 305 303 301 300 300 300 300 300 301 301 301 301 302 303 303 302 302 303 296 290 293 300 303 308 308 306 306 304 301 298 294 293 291 296 295 297 296 295 299 293 293 293 299 299 297 298 299 297 296 295 295
306 306 306 303 301 300 300 300 299 299 300 300 301 302 302 302 302 299 296 304 304 303 292 286 300 300 305 306 303 303 301 300 300 295 293 295 300 297 291 292 299 302 302 302 298 301 302 300 300 300 298 296 296 296
305 306 304 301 300 299 299 299 299 299 299 301 302 302 302 302 301 296 296 299 303 302 292 287 292 302 305 304 305 303 302 299 297 295 292 293 295 297 293 289 299 302 304 303 302 303 299 299 296 298 298 296 297 298
305 304 301 300 299 299 298 298 299 299 300 301 302 302 302 303 301 298 303 304 306 298 296 287 290 296 306 301 300 305 299 298 297 294 295 294 299 298 290 297 300 303 302 302 302 302 301 300 299 297 298 296 295 296
304 302 300 298 298 298 297 298 298 299 300 302 302 302 302 301 298 303 306 306 305 298 289 289 288 291 305 303 303 300 300 291 298 291 293 297 295 292 298 301 301 301 301 300 301 301 300 297 296 296 296 293 293 295
302 300 298 298 297 297 297 298 298 298 300 301 301 301 297 301 300 303 301 297 294 294 292 288 295 290 296 296 296 300 300 295 291 295 300 294 295 302 302 304 305 303 303 302 299 297 296 295 295 296 294 293 294 296
301 299 298 297 297 297 297 298 298 299 299 298 295 294 299 304 299 297 293 292 292 288 291 292 294 291 299 293 294 300 297 299 291 296 295 295 295 299 306 305 306 306 305 304 302 300 299 297 296 295 295 294 295 296
299 298 298 297 296 297 298 298 298 297 296 294 294 298 299 296 293 290 291 294 293 291 297 296 297 299 299 302 297 300 295 297 290 300 295 292 298 302 304 304 305 306 305 302 301 299 299 298 298 297 296 294 295 296
299 298 297 297 297 297 297 297 297 298 298 300 295 292 292 292 285 285 285 289 290 294 295 294 288 300 298 301 295 297 292 292 301 294 292 296 302 304 304 304 306 306 304 303 301 300 300 299 299 297 296 296 295 295
298 297 297 297 297 297 297 297 297 298 297 293 290 283 287 287 289 291 290 292 295 297 296 296 294 294 295 291 293 291 296 298 291 289 290 295 301 304 305 305 305 304 305 303 301 301 300 299 298 299 296 295 295 294
297 297 297 297 297 298 297 297 298 299 296 290 290 283 288 292 292 292 294 293 294 297 296 294 295 297 292 287 290 289 291 289 291 292 298 303 305 305 305 306 305 305 304 303 302 300 300 300 299 297 298 295 294 293
296 296 296 297 295 296 297 298 299 298 294 291 289 287 290 290 290 291 291 291 294 295 296 297 293 292 289 289 287 287 289 288 292 298 303 306 306 307 307 307 306 306 305 304 303 302 301 300 300 300 299 296 294 293
296 295 297 296 296 297 297 298 296 291 290 288 289 293 292 290 290 291 292 292 296 293 291 293 288 287 290 288 287 285 284 287 295 295 301 306 306 305 307 308 307 307 306 306 305 303 303 303 302 301 299 298 296 294
294 295 297 296 297 299 299 297 294 292 287 291 289 291 293 293 292 293 294 295 294 292 293 290 294 288 286 284 285 286 291 295 297 298 302 305 306 307 307 307 308 308 307 307 306 305 303 304 302 299 301 300 299 296
296 298 296 295 296 296 293 294 296 288 291 293 293 294 294 294 296 296 297 298 298 297 294 293 289 285 285 289 289 290 294 294 294 298 299 302 305 306 306 308 308 308 308 308 305 304 303 305 304 303 301 300 299 298
295 295 295 295 295 296 291 293 298 291 289 292 294 292 293 294 297 298 298 297 297 294 290 286 284 286 288 290 292 292 294 294 294 295 297 301 304 303 307 307 306 308 308 309 307 302 305 303 302 302 301 300 299 299
294 297 295 296 296 297 294 293 292 294 293 291 293 293 293 297 294 292 292 296 291 287 285 287 287 289 292 295 296 295 293 294 294 296 294 295 300 303 308 309 306 307 305 307 304 304 303 304 304 303 301 299 300 300
297 296 298 296 294 293 292 296 293 294 292 292 292 293 292 292 292 292 294 290 288 289 289 289 289 290 292 292 293 294 292 292 295 294 294 295 296 299 302 307 308 304 306 305 307 306 305 305 305 303 301 301 300 301
295 296 296 294 289 289 286 296 290 292 287 289 291 288 290 292 293 296 289 290 289 292 291 290 290 292 291 292 293 292 292 289 288 290 293 292 294 297 300 303 304 305 304 305 308 308 307 298 302 303 302 301 299 299
296 294 289 288 288 286 292 290 292 291 290 288 288 286 289 292 295 291 285 287 289 290 289 289 289 288 291 290 288 290 291 290 289 290 293 291 290 290 295 296 299 301 299 305 309 308 308 307 301 304 303 301 301 300
287 284 287 284 290 287 286 286 287 287 284 286 285 286 290 293 288 286 284 285 286 286 287 289 289 288 287 288 289 289 292 291 289 287 291 291 289 288 289 292 294 296 296 296 301 306 305 304 306 305 304 303 302 301
280 285 285 286 287 286 287 284 284 285 286 284 287 291 293 290 284 283 285 287 286 287 288 288 287 287 287 290 288 288 290 293 293 290 291 291 290 287 287 286 287 289 293 295 298 301 304 306 305 306 305 302 292 301
280 282 289 294 292 291 289 290 290 288 284 284 288 287 288 281 282 284 289 289 287 289 290 290 289 288 289 289 290 290 291 293 293 293 295 295 293 293 290 288 287 290 292 295 296 299 301 304 305 306 306 305 304 303
286 289 286 289 289 291 287 287 286 285 287 290 289 284 283 282 283 287 287 290 290 291 290 290 291 291 290 290 290 291 291 292 292 292 294 294 294 294 293 293 294 287 293 294 294 296 299 301 302 304 306 306 305 305
288 292 292 288 289 288 288 287 287 290 294 292 288 286 286 288 288 288 290 291 292 291 289 288 289 290 290 291 291 291 291 289 287 285 285 286 287 290 293 294 295 295 295 294 290 290 293 294 299 306 306 305 305 307
289 293 290 289 287 286 289 292 292 294 294 294 291 289 287 287 289 292 290 289 288 287 288 288 289 288 286 287 287 288 290 289 287 286 284 285 287 290 292 293 294 295 295 293 291 292 290 294 293 299 302 304 304 303
293 292 290 289 288 291 293 295 295 294 294 293 294 289 286 285 287 289 288 288 288 287 286 285 286 287 286 286 286 286 286 288 287 286 287 288 288 289 291 292 292 293 294 293 291 289 289 289 290 290 290 292 296 301
291 290 289 286 288 293 294 292 292 291 290 289 288 289 286 285 283 285 287 287 286 285 284 285 285 285 288 289 289 289 285 288 286 285 284 285 286 287 289 291 292 291 290 290 289 288 287 286 286 286 286 286 287 289
291 290 290 289 289 288 290 290 289 288 288 288 288 288 288 286 281 284 288 289 288 287 287 288 288 289 289 289 289 289 287 288 285 283 284 283 282 283 286 287 289 289 287 286 286 286 285 284 284 284 283 283 283 284
Wind_Speed
12 12 13 13 11 11 11 11 12 12 13 14 14 14 13 13 13 9 9 10 8 10 18 25 22 18 13 8 7 11 10 4 7 3 4 4 6 7 10 12 12 5 5 4 3 5 3 6 4 2 4 13 13 15
12 12 12 13 9 10 11 12 12 12 13 14 14 14 13 14 13 11 10 9 8 6 14 23 25 27 28 24 13 3 7 7 5 4 2 4 6 5 11 6 11 5 4 3 5 5 12 10 0 3 7 10 14 17
13 13 11 10 10 10 11 12 13 14 14 14 15 15 15 15 14 10 10 11 10 10 14 15 16 17 16 19 15 8 7 8 7 4 3 2 5 8 6 9 14 13 14 10 12 8 6 6 1 1 8 13 17 16
13 12 13 10 10 10 12 13 13 14 15 15 16 17 16 15 14 12 9 9 9 4 7 7 12 14 16 8 15 18 17 8 5 2 3 3 4 7 6 13 16 12 6 10 16 12 13 4 6 8 14 16 18 16
13 12 12 10 9 10 12 14 14 15 16 17 18 17 16 15 15 12 11 11 11 9 6 12 25 24 12 15 16 14 14 14 8 2 3 3 5 7 7 9 10 3 3 7 10 8 6 4 1 10 15 17 16 16
13 12 11 10 9 10 12 13 15 16 17 18 18 18 17 15 12 8 5 4 5 4 2 5 12 17 11 11 16 15 11 5 4 2 2 4 13 5 5 8 14 8 10 20 8 12 11 2 5 11 17 15 16 17
13 12 10 10 9 10 12 13 16 18 19 19 21 20 19 16 9 7 4 2 5 3 2 6 7 4 7 7 5 3 8 4 4 2 5 6 11 7 4 7 21 14 17 11 11 10 10 10 5 13 12 16 16 16
12 11 9 9 9 10 11 14 17 19 20 23 22 21 19 14 9 8 10 10 8 2 2 5 7 11 10 6 4 3 3 4 3 2 3 5 7 5 6 19 13 3 14 10 13 13 10 10 11 14 10 13 16 14
12 11 9 9 8 10 11 14 18 20 23 25 25 27 7 4 3 1 6 8 2 1 3 4 5 6 2 2 0 2 4 5 4 5 5 5 5 8 14 8 2 7 8 11 10 13 13 12 11 15 11 14 15 15
13 11 10 8 8 10 12 14 17 21 25 29 12 7 5 2 2 6 5 3 4 4 4 6 8 14 13 10 4 4 5 4 4 8 4 6 9 16 2 15 6 1 8 11 11 13 13 13 13 15 11 11 12 12
13 11 9 8 8 9 12 14 16 19 18 4 5 5 7 9 5 6 4 5 5 4 5 6 10 10 7 9 8 4 3 3 4 5 5 4 1 10 2 6 7 8 9 10 11 10 12 10 11 12 11 9 12 14
14 12 10 8 6 8 10 8 11 9 7 8 8 9 5 4 5 5 4 3 6 5 3 6 5 5 3 3 3 4 4 3 5 5 6 2 1 12 5 10 4 6 11 9 11 10 12 10 13 10 9 10 12 13
14 12 9 8 7 7 6 8 11 14 15 7 5 4 3 3 2 5 5 1 5 8 8 8 10 3 4 2 4 5 4 5 8 3 3 5 8 9 8 4 5 10 8 8 11 11 12 13 13 12 13 11 11 12
12 10 9 9 8 8 8 9 13 10 7 4 3 2 5 4 3 2 6 8 7 4 7 5 6 2 1 2 4 5 5 4 3 3 4 5 7 9 3 6 5 4 8 9 11 11 12 12 13 15 13 11 10 11
11 9 9 10 11 10 7 11 12 6 4 4 4 3 3 5 8 11 9 7 7 10 9 4 7 3 1 3 2 4 5 4 2 3 5 2 9 5 4 7 2 0 5 8 11 10 11 11 11 12 12 12 11 11
10 6 6 10 6 6 7 12 6 3 2 4 4 6 7 8 10 9 11 8 9 10 11 6 4 3 3 2 3 4 5 3 6 8 9 10 7 5 5 6 4 3 5 9 9 9 11 10 10 11 11 10 9 10
7 4 13 9 7 8 9 5 3 4 4 4 5 6 6 7 8 6 7 9 9 6 6 4 5 4 5 3 2 5 5 6 7 10 11 13 13 13 7 12 5 6 6 6 7 7 7 7 8 8 9 11 11 11
3 8 11 6 5 7 6 6 3 3 5 6 6 5 6 6 8 7 8 6 8 4 5 2 4 2 3 5 3 2 6 8 10 8 10 13 17 16 8 9 6 10 4 5 8 5 6 7 8 8 11 12 11 11
8 6 5 3 3 4 4 5 2 4 4 4 4 5 6 6 6 7 10 9 8 9 4 4 6 5 5 4 6 9 10 9 9 11 10 13 16 15 12 15 1 7 8 4 11 2 6 6 6 5 7 7 8 8
3 3 3 3 3 4 5 3 2 4 5 4 4 4 5 9 8 9 8 7 7 6 7 6 4 4 4 5 7 8 8 9 9 9 10 12 11 18 15 7 8 2 5 4 5 5 5 7 6 6 6 7 8 9
8 6 6 5 7 5 4 2 5 2 4 5 5 6 1 6 6 7 7 6 7 5 3 2 4 6 9 6 5 6 9 11 11 7 9 10 12 11 10 9 11 11 7 1 5 4 5 6 6 6 7 7 8 8
4 9 4 5 4 5 4 4 4 4 3 4 6 4 3 2 3 5 7 7 5 4 1 3 6 7 8 11 11 12 13 15 13 10 11 12 11 12 12 8 6 4 6 11 4 5 6 7 7 8 7 6 6 6
5 3 4 4 4 2 6 2 5 1 3 4 3 4 3 3 3 3 4 3 3 4 6 6 9 11 9 11 11 12 14 14 9 9 9 10 10 11 12 12 10 8 9 11 4 7 7 9 7 8 8 8 8 7
1 4 5 6 7 4 2 5 3 1 4 6 2 2 2 1 4 1 4 3 4 6 7 9 7 8 8 12 10 10 10 8 7 7 8 9 9 10 10 10 11 10 13 13 6 7 4 5 9 8 9 9 8 8
3 3 3 4 4 5 5 5 5 4 4 0 3 2 2 3 3 3 3 3 4 5 6 8 8 7 7 7 7 10 12 8 7 9 7 8 9 9 9 9 8 9 11 12 13 11 9 11 7 9 9 8 9 11
4 6 6 9 6 5 5 5 6 7 3 3 4 3 3 2 4 3 3 4 4 4 5 6 6 6 7 7 8 8 9 8 7 7 5 8 7 9 10 11 11 11 12 11 11 11 8 5 14 9 10 9 7 10
5 7 6 6 5 6 4 5 4 2 5 5 3 3 3 3 3 3 3 5 3 4 4 4 4 5 6 6 7 8 8 8 8 7 4 5 5 6 9 9 11 10 11 12 12 13 12 7 9 12 11 11 10 9
7 7 11 8 5 4 5 3 4 5 5 3 2 2 3 3 3 3 2 0 1 2 4 4 5 6 7 6 7 8 8 10 10 11 7 8 8 9 11 8 8 9 9 10 11 11 12 11 9 9 9 10 12 11
6 5 7 10 8 5 5 6 6 4 1 1 2 3 4 5 4 3 2 2 1 1 4 5 6 6 6 7 7 7 9 10 14 19 19 12 13 12 11 10 9 9 9 11 11 10 14 11 12 8 4 9 7 10
7 8 6 8 8 7 7 7 3 5 4 6 8 9 8 5 4 2 3 4 4 4 5 5 5 6 6 6 7 8 8 10 11 11 11 12 12 13 12 12 12 10 9 11 12 14 13 11 14 13 4 6 5 6
6 9 7 7 9 9 7 8 8 5 4 5 7 7 8 7 6 6 5 4 4 5 4 5 5 6 6 6 7 7 7 8 12 14 12 10 11 12 12 13 12 11 10 11 11 13 13 12 11 13 18 19 16 5
9 11 9 8 8 2 4 8 8 6 7 8 5 7 8 6 4 3 3 3 4 4 2 2 3 4 6 6 7 6 4 8 8 10 14 11 11 13 12 12 11 12 14 14 13 13 16 16 12 13 11 14 15 16
7 8 9 9 7 8 6 3 5 6 5 6 4 5 3 3 4 3 3 4 3 4 4 4 3 3 5 7 8 7 6 8 9 5 5 5 7 11 10 10 11 12 15 14 15 15 17 20 17 18 17 17 16 15
Wind_Direction
276 285 290 293 299 310 314 318 321 325 327 324 326 326 325 322 319 313 302 303 274 267 279 278 280 287 288 278 255 296 315 14 291 278 295 335 321 334 308 333 305 289 295 295 288 276 290 225 19 163 272 287 286 287
272 277 280 289 287 304 308 312 315 318 320 319 321 319 316 313 311 306 285 275 315 270 271 300 285 278 264 265 267 228 273 321 287 302 9 313 315 293 310 291 317 282 307 239 216 254 314 337 132 257 263 311 316 309
270 275 274 272 284 295 300 306 312 314 318 316 315 312 308 305 301 294 292 300 285 281 288 256 269 269 229 230 222 230 236 228 239 337 327 268 272 309 298 298 299 301 319 287 288 264 342 325 112 356 313 319 306 305
261 266 273 264 281 291 297 303 309 312 314 314 310 307 308 303 302 298 285 295 288 287 284 297 322 327 314 228 203 203 232 254 258 6 271 267 262 273 284 297 294 302 351 304 291 354 333 141 20 9 305 319 317 305
258 257 264 262 276 289 295 302 308 311 312 311 309 306 305 307 302 295 270 255 260 258 298 309 309 278 294 209 208 208 213 236 261 237 238 244 269 273 282 291 270 110 227 285 309 333 310 21 3 309 309 330 312 307
251 257 250 258 271 286 295 303 308 309 310 309 306 303 300 304 318 303 302 65 239 263 328 291 312 292 286 191 200 220 204 203 236 219 232 242 257 270 266 270 285 167 243 261 17 348 67 114 259 336 328 328 316 306
245 246 242 257 272 286 296 305 306 307 307 306 301 298 297 292 275 246 345 7 354 60 245 282 259 186 220 188 188 183 187 179 205 197 224 252 270 265 250 259 277 323 306 1 14 11 2 46 352 337 339 323 314 307
241 230 235 252 271 286 299 306 307 307 308 305 298 297 297 289 260 258 248 234 150 237 251 268 277 276 200 191 219 141 150 177 191 233 241 243 262 211 253 252 268 316 272 4 18 360 37 34 11 333 333 333 331 330
221 220 229 249 270 288 302 308 310 309 307 302 300 297 282 200 212 263 78 121 134 212 262 244 275 298 164 5 161 183 161 202 199 214 227 237 232 225 236 274 314 19 338 32 6 14 11 23 2 336 354 344 341 339
209 211 225 245 270 289 303 309 312 314 308 299 291 210 166 20 253 173 169 205 175 187 231 250 244 265 290 306 284 190 189 226 215 213 215 210 247 244 128 263 119 52 6 29 19 13 6 17 357 346 18 349 340 350
206 209 221 240 267 293 302 308 315 321 293 319 331 1 334 346 267 216 229 205 153 231 214 237 228 245 264 257 285 266 267 237 257 155 234 229 139 345 201 104 98 54 33 41 58 22 48 29 11 2 11 3 349 3
202 208 216 232 262 294 310 333 333 317 341 328 302 292 284 273 230 271 253 222 198 247 159 300 292 217 275 278 253 258 259 269 264 207 228 290 201 217 185 65 79 55 57 51 57 31 59 38 29 13 28 18 3 10
201 207 216 236 255 278 311 328 325 310 296 250 185 234 256 260 304 244 255 354 349 358 347 339 327 320 6 345 275 268 254 257 312 276 279 64 52 76 78 153 264 54 79 53 61 58 43 43 38 31 35 27 15 18
199 206 226 239 251 264 267 312 316 314 273 265 232 258 253 216 302 347 291 303 337 290 325 332 304 325 27 238 310 269 242 288 258 253 27 350 297 87 130 87 65 25 37 63 55 64 64 43 36 40 43 32 27 20
195 212 231 248 247 251 264 288 293 278 271 280 280 245 261 337 305 320 323 337 315 309 313 292 261 219 220 278 256 308 267 236 281 0 9 20 91 127 123 91 42 143 54 62 60 58 65 65 60 56 49 35 34 29
192 226 221 165 173 236 270 276 233 254 269 264 252 266 289 324 331 334 328 321 330 331 327 322 288 251 213 280 246 228 289 26 5 356 338 347 19 153 93 108 109 313 58 67 62 60 70 71 70 65 73 65 57 45
177 236 151 172 224 262 266 258 191 210 285 274 242 257 291 314 326 327 314 320 308 324 324 312 330 15 288 242 344 26 342 299 354 346 320 353 350 357 314 151 127 85 82 78 73 61 90 91 93 88 89 93 71 54
250 146 159 185 254 193 196 224 244 234 240 242 264 325 343 321 313 316 289 296 295 308 329 291 224 308 344 357 341 300 283 349 353 326 329 347 351 356 354 314 147 111 77 92 49 35 57 72 63 64 63 117 94 76
20 118 151 181 313 284 196 209 222 277 284 313 313 341 311 313 307 330 8 344 328 308 242 26 31 12 350 336 328 339 354 359 341 340 340 338 351 347 338 272 104 144 127 108 111 221 78 58 58 60 81 76 80 100
244 176 197 228 235 245 207 199 188 231 268 343 289 310 322 30 6 6 5 351 328 28 32 38 16 316 317 309 336 336 340 338 332 342 357 345 342 340 324 34 296 15 143 130 140 149 136 94 67 60 69 61 60 78
174 177 197 209 200 257 293 238 228 226 324 310 304 296 14 82 55 41 22 3 58 42 29 336 311 324 314 327 334 352 352 346 327 356 355 339 325 324 336 11 16 347 347 192 154 185 141 110 119 96 83 79 81 87
124 168 215 187 240 185 251 230 294 341 248 269 280 284 305 111 62 54 48 40 54 47 26 342 335 326 339 4 1 13 5 348 346 352 348 339 342 340 337 350 2 321 329 318 226 168 149 134 120 110 113 133 116 92
175 186 223 184 212 173 259 253 242 250 296 307 286 292 68 56 92 168 86 79 96 31 26 11 353 343 349 1 6 7 9 356 347 347 352 348 346 344 338 349 350 347 341 314 337 290 120 117 130 135 126 115 115 122
183 232 204 192 189 233 218 216 177 237 240 243 269 276 68 68 126 158 95 77 40 23 8 360 4 355 354 5 4 360 3 357 341 340 355 357 353 350 348 346 359 2 14 332 339 332 30 164 133 156 142 145 154 136
195 226 159 230 226 214 222 191 177 225 250 232 247 226 189 142 158 75 75 76 32 20 7 355 4 3 350 350 349 353 1 354 346 337 345 9 3 353 1 360 8 22 359 352 1 325 338 334 205 167 160 169 159 143
213 213 195 199 186 211 185 188 194 214 224 250 230 197 110 114 93 106 77 32 25 18 0 359 359 349 352 358 353 349 353 352 350 343 4 6 7 3 357 357 355 358 355 342 336 341 340 287 327 200 179 161 137 147
220 221 196 245 193 179 197 214 241 163 204 234 184 209 122 135 120 93 101 43 12 5 347 339 358 348 339 353 358 0 1 357 6 348 315 357 18 13 359 352 349 338 328 336 343 336 341 333 294 299 182 165 173 171
241 231 197 185 189 189 223 190 221 221 209 204 261 61 93 90 88 95 78 84 309 347 7 2 7 4 0 8 3 357 16 13 13 12 14 20 22 18 2 349 343 324 339 345 345 341 343 333 316 321 309 167 168 180
224 225 208 173 188 158 207 214 227 205 120 219 176 94 90 72 79 114 205 180 188 13 24 17 19 13 14 8 9 2 19 22 13 15 13 7 0 3 1 349 347 -0 357 350 346 341 338 339 333 270 317 325 175 177
215 201 191 188 187 209 203 206 208 85 64 75 99 106 89 99 136 141 59 44 34 20 13 15 22 21 17 11 8 13 30 37 22 16 0 358 357 347 350 350 358 6 7 4 357 351 347 5 16 13 347 267 160 150
209 189 175 207 209 220 199 152 133 136 137 112 72 124 125 126 96 71 46 27 56 44 26 17 21 0 14 9 8 18 15 42 22 17 9 354 1 353 352 350 5 2 6 20 13 11 9 12 19 21 29 23 3 21
213 195 190 206 227 186 133 192 149 152 155 145 123 136 129 150 119 88 26 11 64 74 63 339 4 359 357 2 1 20 330 57 32 26 19 8 7 357 359 353 11 11 10 20 26 27 22 24 29 25 28 41 25 9
217 200 204 216 237 233 193 189 147 149 152 130 125 141 109 81 95 110 101 65 46 17 356 343 337 8 356 11 6 357 0 77 101 74 58 38 20 1 12 7 2 30 26 25 26 28 30 33 35 37 39 38 39 40